カタログに戻る

THORAD AGENA D DEB

運用中LEO
NORAD 4438·DEBRIS·🇺🇸 United States

打ち上げ Sep 30, 1969 から Vandenberg Space Force Base

Loading…

次のパス (今後24時間)

TLE

最新Source: Space-Track

元期: Sep 14, 2026, 08:05 UTC

1 04438U 69082EK  26257.33688057  .00001369  00000-0  25414-3 0  9994
2 04438  70.0965  24.8745 0044763  19.8112 340.4756 14.66821370987757

AllMySatでTHORAD AGENA D DEBをリアルタイム追跡

Download on the App Store